Track STARLINK-3362 now! 10-day predictions STARLINK-3362 is classified as:
1 51108U 22005E 22137.83334491 -.00648607 00000-0 -41477-1 0 9991 2 51108 53.2177 57.4068 0001847 43.0005 93.8988 15.10538882 19864